Weather History for Ocala, FL

Change the Weather History Date:

Saturday, August 24, 2013

  Actual Average Record
Temperature  
Mean Temperature 80 °F -  
Max Temperature 89 °F 88 °F 96 °F (2014)
Min Temperature 71 °F 69 °F 64 °F (2007)
Cooling Degree Days 15    
Growing Degree Days 30 (Base 50)    
Moisture  
Dew Point 70 °F    
Average Humidity 85    
Maximum Humidity 89    
Minimum Humidity 59    
Precipitation  
Precipitation 0.01 in - - ()
Sea Level Pressure  
Sea Level Pressure 30.08 in    
Wind  
Wind Speed 2 mph (NE)    
Max Wind Speed 12 mph    
Max Gust Speed 23 mph    
Visibility 7 miles    
Events Fog , Rain , Thunderstorm    
Averages and records for this station are not official NWS values.
T = Trace of Precipitation, MM = Missing Value Source: NWS Daily Summary

Daily Weather History Graph

Daily Weather History Graph

Search for Another Location

Airport:

Trip Planner

Search our weather history database for the weather conditions in past years. The results will help you decide how hot, cold, wet, or windy it might be!

Date:

Astronomy

Aug. 24, 2013 Rise Set
Actual Time 7:02 AM EDT 7:59 PM EDT
Civil Twilight 6:38 AM EDT 8:23 PM EDT
Nautical Twilight 6:09 AM EDT 8:52 PM EDT
Astronomical Twilight 5:39 AM EDT 9:22 PM EDT
Moon 10:18 PM EDT (8/24) 10:37 AM EDT (8/24)
Length of Visible Light 13h 45m
Length of Day
12h 56m
Waning Gibbous, 84% of the Moon is Illuminated
Aug 24
Waning Gibbous
Aug 28
Last Quarter
Sep 5
New
Sep 12
First Quarter
Sep 19
Full

Hourly Weather History & Observations

Time (EDT) Temp. Heat Index Dew Point Humidity Pressure Visibility Wind Dir Wind Speed Gust Speed Precip Events Conditions
12:15 AM 71.6 °F - 68.0 °F 88% 30.04 in 10.0 mi Calm Calm - N/A   Clear
12:35 AM 71.6 °F - 68.0 °F 88% 30.03 in 10.0 mi Calm Calm - N/A   Clear
12:55 AM 71.6 °F - 68.0 °F 88% 30.04 in 10.0 mi Calm Calm - N/A   Clear
1:15 AM 71.6 °F - 68.0 °F 88% 30.04 in 10.0 mi Calm Calm - N/A   Clear
1:35 AM 71.6 °F - 68.0 °F 88% 30.04 in 10.0 mi Calm Calm - N/A   Clear
1:55 AM 71.6 °F - 68.0 °F 88% 30.04 in 10.0 mi North 3.5 mph - N/A   Clear
2:15 AM 71.6 °F - 68.0 °F 88% 30.04 in 10.0 mi NE 3.5 mph - N/A   Clear
2:35 AM 71.6 °F - 68.0 °F 88% 30.04 in 10.0 mi NNE 3.5 mph - N/A   Clear
2:55 AM 71.6 °F - 68.0 °F 88% 30.04 in 10.0 mi NNE 4.6 mph - N/A   Clear
3:15 AM 71.6 °F - 68.0 °F 88% 30.04 in 10.0 mi Calm Calm - N/A   Clear
3:35 AM 71.6 °F - 68.0 °F 88% 30.03 in 8.0 mi Calm Calm - N/A   Scattered Clouds
3:55 AM 71.6 °F - 68.0 °F 88% 30.03 in 1.5 mi Calm Calm - N/A   Overcast
4:15 AM 71.6 °F - 68.0 °F 88% 30.04 in 1.0 mi Calm Calm - N/A   Overcast
4:35 AM 71.6 °F - 68.0 °F 88% 30.04 in 0.8 mi Calm Calm - N/A   Overcast
4:55 AM 71.6 °F - 68.0 °F 88% 30.03 in 0.5 mi Calm Calm - N/A   Overcast
5:15 AM 71.6 °F - 68.0 °F 88% 30.03 in 0.5 mi Calm Calm - N/A   Overcast
5:35 AM 71.6 °F - 68.0 °F 88% 30.03 in 0.8 mi NNE 3.5 mph - N/A   Overcast
5:55 AM 73.4 °F - 69.8 °F 88% 30.04 in 0.8 mi Calm Calm - N/A   Overcast
6:15 AM 73.4 °F - 69.8 °F 88% 30.05 in 1.0 mi Calm Calm - N/A   Overcast
6:35 AM 73.4 °F - 69.8 °F 88% 30.05 in 1.0 mi Calm Calm - N/A   Overcast
6:50 AM 73.4 °F - 69.8 °F 88% 30.05 in 0.5 mi Calm Calm - N/A Fog Fog
7:50 AM 73.4 °F - 69.8 °F 88% 30.07 in 0.5 mi Calm Calm - N/A Fog Fog
8:50 AM 73.4 °F - 69.8 °F 88% 30.09 in 0.5 mi NE 4.6 mph - N/A Fog Fog
9:50 AM 75.2 °F - 71.6 °F 89% 30.11 in 3.0 mi NE 3.5 mph - N/A   Overcast
10:50 AM 78.8 °F - 73.4 °F 83% 30.13 in 7.0 mi Calm Calm - N/A   Overcast
11:25 AM 80.6 °F 85.4 °F 73.4 °F 79% 30.13 in 10.0 mi NE 3.5 mph - N/A   Mostly Cloudy
11:50 AM 84.2 °F 90.9 °F 73.4 °F 70% 30.12 in 10.0 mi NE 5.8 mph - N/A   Mostly Cloudy
12:50 PM 86.0 °F 93.4 °F 73.4 °F 66% 30.11 in 10.0 mi NE 3.5 mph - N/A   Mostly Cloudy
1:50 PM 89.6 °F 98.2 °F 73.4 °F 59% 30.09 in 10.0 mi ENE 4.6 mph - N/A   Scattered Clouds
2:50 PM 89.6 °F 98.2 °F 73.4 °F 59% 30.08 in 10.0 mi NE 6.9 mph - N/A   Mostly Cloudy
3:50 PM 82.4 °F 86.3 °F 69.8 °F 66% 30.07 in 6.0 mi ENE 11.5 mph 23.0 mph N/A   Mostly Cloudy
4:00 PM 80.6 °F 83.9 °F 69.8 °F 70% 30.09 in 3.0 mi East 11.5 mph 23.0 mph N/A Rain , Thunderstorm Thunderstorms and Rain
4:50 PM 77.0 °F - 71.6 °F 83% 30.10 in 6.0 mi East 5.8 mph - N/A   Mostly Cloudy
5:50 PM 77.0 °F - 73.4 °F 89% 30.10 in 6.0 mi East 4.6 mph - N/A   Overcast
6:50 PM 75.2 °F - 71.6 °F 89% 30.09 in 7.0 mi SE 6.9 mph - N/A   Mostly Cloudy
7:55 PM 75.2 °F - 71.6 °F 89% 30.10 in 10.0 mi Calm Calm - N/A   Clear
8:15 PM 75.2 °F - 71.6 °F 89% 30.09 in 10.0 mi Calm Calm - N/A   Clear
8:35 PM 75.2 °F - 71.6 °F 89% 30.10 in 10.0 mi Calm Calm - N/A   Partly Cloudy
8:55 PM 75.2 °F - 71.6 °F 89% 30.10 in 10.0 mi NNE 3.5 mph - N/A   Partly Cloudy
9:15 PM 75.2 °F - 71.6 °F 89% 30.10 in 10.0 mi Calm Calm - N/A   Clear
9:35 PM 75.2 °F - 71.6 °F 89% 30.11 in 10.0 mi South 3.5 mph - N/A   Clear
9:55 PM 75.2 °F - 71.6 °F 89% 30.11 in 10.0 mi Calm Calm - N/A   Clear
10:15 PM 75.2 °F - 71.6 °F 89% 30.12 in 10.0 mi Calm Calm - N/A   Clear
10:35 PM 75.2 °F - 71.6 °F 89% 30.13 in 10.0 mi Calm Calm - N/A   Clear
10:55 PM 75.2 °F - 71.6 °F 89% 30.14 in 10.0 mi Calm Calm - N/A   Clear
11:15 PM 75.2 °F - 71.6 °F 89% 30.14 in 10.0 mi Calm Calm - N/A   Clear
11:35 PM 75.2 °F - 71.6 °F 89% 30.15 in 10.0 mi Calm Calm - N/A   Clear
11:55 PM 75.2 °F - 71.6 °F 89% 30.15 in 10.0 mi Calm Calm - 0.01 in   Clear